ZKJEE NZWB-NZNS

Flight info

Callsign ZKJEE
Flight time 0h 36m
Altitude 10000
Route LUBSI
Aircraft DHC6/L-SDFGR/G

Departure

Time 2026-04-18 02:49
Airport Woodbourne Airport (NZWB)

Arrival

Time 2026-04-18 03:25
Airport Nelson Airport (NZNS)
Time Latitude Longitude Altitude Speed Heading
2026-04-18 02:45 -41.51827 173.86154 115 ft 0 kts 86°
2026-04-18 02:49 -41.51824 173.86218 115 ft 38 kts 86°
2026-04-18 02:49 -41.51767 173.87309 129 ft 121 kts 86°
2026-04-18 02:49 -41.51729 173.88074 314 ft 123 kts 87°
2026-04-18 02:49 -41.51396 173.89533 761 ft 128 kts 50°
2026-04-18 02:50 -41.50813 173.90459 1126 ft 134 kts 39°
2026-04-18 02:50 -41.50221 173.91447 1491 ft 139 kts 42°
2026-04-18 02:50 -41.49650 173.92485 1864 ft 138 kts 53°
2026-04-18 02:50 -41.49274 173.93195 2094 ft 140 kts 50°
2026-04-18 02:51 -41.48711 173.94310 2401 ft 149 kts 45°
2026-04-18 02:51 -41.48131 173.95490 2763 ft 154 kts 46°
2026-04-18 02:51 -41.47560 173.96699 3118 ft 156 kts 48°
2026-04-18 02:51 -41.46989 173.97940 3473 ft 158 kts 49°
2026-04-18 02:52 -41.46431 173.99174 3820 ft 158 kts 49°
2026-04-18 02:52 -41.45861 174.00451 4175 ft 159 kts 50°
2026-04-18 02:52 -41.45294 174.01724 4528 ft 159 kts 50°
2026-04-18 02:52 -41.44729 174.02988 4877 ft 159 kts 50°
2026-04-18 02:53 -41.44160 174.04263 5229 ft 160 kts 49°
2026-04-18 02:53 -41.43574 174.05517 5578 ft 157 kts 43°
2026-04-18 02:53 -41.42871 174.06603 5931 ft 153 kts 35°
2026-04-18 02:53 -41.42135 174.07622 6281 ft 153 kts 34°
2026-04-18 02:54 -41.41403 174.08658 6631 ft 154 kts 35°
2026-04-18 02:54 -41.40682 174.09706 6980 ft 154 kts 35°
2026-04-18 02:54 -41.39960 174.10759 7329 ft 152 kts 32°
2026-04-18 02:54 -41.39090 174.11254 7666 ft 127 kts 348°
2026-04-18 02:55 -41.38360 174.10753 8035 ft 118 kts 318°
2026-04-18 02:55 -41.37793 174.09975 8387 ft 118 kts 313°
2026-04-18 02:55 -41.37231 174.09175 8740 ft 117 kts 315°
2026-04-18 02:55 -41.36654 174.08420 9089 ft 116 kts 317°
2026-04-18 02:56 -41.36069 174.07702 9437 ft 114 kts 318°
2026-04-18 02:56 -41.35484 174.07010 9778 ft 113 kts 318°
2026-04-18 02:56 -41.34916 174.04926 10008 ft 152 kts 270°
2026-04-18 02:57 -41.35247 174.03582 10009 ft 165 kts 263°
2026-04-18 02:57 -41.35692 174.02086 10005 ft 172 kts 261°
2026-04-18 02:57 -41.36162 174.00589 10003 ft 175 kts 260°
2026-04-18 02:57 -41.36630 173.99117 9999 ft 172 kts 260°
2026-04-18 02:58 -41.37098 173.97660 9999 ft 171 kts 260°
2026-04-18 02:58 -41.37565 173.96214 9999 ft 170 kts 260°
2026-04-18 02:58 -41.38028 173.94782 10000 ft 169 kts 260°
2026-04-18 02:58 -41.38497 173.93335 10000 ft 169 kts 260°
2026-04-18 02:59 -41.38964 173.91895 10000 ft 169 kts 260°
2026-04-18 02:59 -41.39436 173.90442 10000 ft 169 kts 260°
2026-04-18 02:59 -41.39893 173.89031 10000 ft 169 kts 259°
2026-04-18 02:59 -41.40367 173.87595 10000 ft 170 kts 259°
2026-04-18 03:00 -41.40845 173.86162 10000 ft 170 kts 259°
2026-04-18 03:00 -41.41321 173.84724 10000 ft 169 kts 260°
2026-04-18 03:00 -41.41786 173.83281 10000 ft 169 kts 259°
2026-04-18 03:00 -41.42258 173.81850 10000 ft 169 kts 259°
2026-04-18 03:01 -41.42720 173.80421 10000 ft 169 kts 259°
2026-04-18 03:01 -41.43200 173.78970 10000 ft 170 kts 259°
2026-04-18 03:01 -41.43667 173.77523 10000 ft 169 kts 260°
2026-04-18 03:01 -41.44142 173.76080 10000 ft 170 kts 259°
2026-04-18 03:02 -41.44608 173.74649 10000 ft 169 kts 260°
2026-04-18 03:02 -41.45080 173.73211 10000 ft 170 kts 259°
2026-04-18 03:02 -41.45549 173.71765 10000 ft 169 kts 259°
2026-04-18 03:02 -41.46026 173.70308 10000 ft 169 kts 259°
2026-04-18 03:03 -41.46539 173.68890 9999 ft 175 kts 252°
2026-04-18 03:03 -41.47254 173.67537 10001 ft 180 kts 246°
2026-04-18 03:03 -41.48022 173.66218 10000 ft 180 kts 244°
2026-04-18 03:03 -41.48791 173.64908 10000 ft 180 kts 245°
2026-04-18 03:04 -41.49557 173.63606 10000 ft 180 kts 245°
2026-04-18 03:04 -41.50339 173.62278 10000 ft 180 kts 245°
2026-04-18 03:04 -41.51109 173.60950 10000 ft 180 kts 246°
2026-04-18 03:04 -41.51863 173.59626 10000 ft 180 kts 246°
2026-04-18 03:05 -41.52614 173.58303 10000 ft 180 kts 246°
2026-04-18 03:05 -41.53365 173.56981 10000 ft 180 kts 246°
2026-04-18 03:05 -41.54127 173.55648 10000 ft 180 kts 246°
2026-04-18 03:05 -41.54890 173.54309 10000 ft 180 kts 246°
2026-04-18 03:06 -41.55628 173.53017 10000 ft 180 kts 246°
2026-04-18 03:06 -41.56146 173.52112 10000 ft 180 kts 246°
2026-04-18 03:06 -41.56895 173.50794 9982 ft 180 kts 246°
2026-04-18 03:06 -41.57616 173.49445 9964 ft 175 kts 253°
2026-04-18 03:07 -41.58082 173.48016 9980 ft 168 kts 262°
2026-04-18 03:07 -41.58458 173.46522 9971 ft 167 kts 263°
2026-04-18 03:07 -41.58830 173.45055 9971 ft 168 kts 263°
2026-04-18 03:07 -41.59231 173.43589 9976 ft 169 kts 260°
2026-04-18 03:08 -41.59695 173.42131 9970 ft 173 kts 253°
2026-04-18 03:08 -41.60217 173.40696 9972 ft 171 kts 258°
2026-04-18 03:08 -41.60533 173.39190 9977 ft 166 kts 267°
2026-04-18 03:08 -41.60935 173.37704 9973 ft 175 kts 253°
2026-04-18 03:09 -41.61527 173.36273 9967 ft 176 kts 251°
2026-04-18 03:09 -41.62088 173.34838 9978 ft 174 kts 255°
2026-04-18 03:09 -41.62580 173.33350 9976 ft 172 kts 258°
2026-04-18 03:09 -41.62992 173.31874 9977 ft 171 kts 261°
2026-04-18 03:10 -41.63374 173.30372 9964 ft 171 kts 262°
2026-04-18 03:10 -41.63745 173.28852 9976 ft 170 kts 262°
2026-04-18 03:10 -41.64104 173.27376 9994 ft 169 kts 262°
2026-04-18 03:10 -41.64470 173.25869 10000 ft 169 kts 262°
2026-04-18 03:11 -41.64825 173.24394 10005 ft 169 kts 262°
2026-04-18 03:11 -41.64973 173.22883 9997 ft 160 kts 280°
2026-04-18 03:11 -41.64789 173.21435 10004 ft 157 kts 289°
2026-04-18 03:11 -41.64503 173.20032 10000 ft 157 kts 291°
2026-04-18 03:12 -41.64193 173.18632 10001 ft 157 kts 291°
2026-04-18 03:12 -41.63906 173.17223 9998 ft 158 kts 290°
2026-04-18 03:12 -41.63636 173.15793 10000 ft 158 kts 289°
2026-04-18 03:12 -41.63380 173.14360 10000 ft 159 kts 289°
2026-04-18 03:13 -41.63117 173.12935 10001 ft 159 kts 289°
2026-04-18 03:13 -41.62799 173.11512 9985 ft 157 kts 299°
2026-04-18 03:13 -41.62060 173.10478 10017 ft 154 kts 321°
2026-04-18 03:13 -41.61144 173.09680 10004 ft 155 kts 326°
2026-04-18 03:14 -41.60241 173.08893 9998 ft 156 kts 323°
2026-04-18 03:14 -41.59379 173.08042 9999 ft 155 kts 320°
2026-04-18 03:14 -41.58530 173.07125 10001 ft 155 kts 320°
2026-04-18 03:14 -41.57695 173.06221 10005 ft 155 kts 320°
2026-04-18 03:15 -41.56851 173.05325 9999 ft 155 kts 320°
2026-04-18 03:15 -41.56003 173.04435 10000 ft 155 kts 321°
2026-04-18 03:15 -41.55138 173.03575 10001 ft 155 kts 322°
2026-04-18 03:15 -41.54287 173.02697 10001 ft 155 kts 320°
2026-04-18 03:16 -41.53452 173.01796 10003 ft 155 kts 320°
2026-04-18 03:16 -41.52599 173.00891 10000 ft 155 kts 320°
2026-04-18 03:16 -41.51712 173.00083 10000 ft 156 kts 328°
2026-04-18 03:16 -41.50744 172.99483 10004 ft 156 kts 332°
2026-04-18 03:17 -41.49743 172.98878 10001 ft 156 kts 330°
2026-04-18 03:17 -41.48784 172.98228 10000 ft 155 kts 328°
2026-04-18 03:17 -41.47836 172.97543 9996 ft 156 kts 328°
2026-04-18 03:17 -41.46888 172.96835 10000 ft 156 kts 328°
2026-04-18 03:18 -41.45909 172.96138 9995 ft 158 kts 332°
2026-04-18 03:18 -41.44800 172.96109 9965 ft 170 kts
2026-04-18 03:18 -41.43905 172.97122 9682 ft 178 kts 47°
2026-04-18 03:18 -41.43356 172.98578 9441 ft 172 kts 55°
2026-04-18 03:19 -41.42865 173.00004 9177 ft 166 kts 54°
2026-04-18 03:19 -41.42355 173.01337 8929 ft 160 kts 51°
2026-04-18 03:19 -41.41820 173.02607 8675 ft 157 kts 49°
2026-04-18 03:19 -41.41257 173.03844 8425 ft 153 kts 46°
2026-04-18 03:20 -41.40728 173.04978 8180 ft 138 kts 45°
2026-04-18 03:20 -41.40226 173.06016 7890 ft 131 kts 42°
2026-04-18 03:20 -41.39645 173.06897 7579 ft 124 kts 31°
2026-04-18 03:20 -41.39061 173.07775 7270 ft 127 kts 36°
2026-04-18 03:21 -41.38543 173.08718 6979 ft 129 kts 41°
2026-04-18 03:21 -41.38050 173.09739 6674 ft 130 kts 44°
2026-04-18 03:21 -41.37575 173.10759 6376 ft 130 kts 44°
2026-04-18 03:21 -41.37098 173.11780 6077 ft 130 kts 44°
2026-04-18 03:22 -41.36561 173.12683 5783 ft 124 kts 32°
2026-04-18 03:22 -41.35980 173.13520 5503 ft 121 kts 32°
2026-04-18 03:22 -41.35461 173.14292 5259 ft 102 kts 30°
2026-04-18 03:22 -41.34988 173.14982 4946 ft 98 kts 28°
2026-04-18 03:23 -41.34553 173.15616 4643 ft 93 kts 27°
2026-04-18 03:23 -41.34117 173.16250 4332 ft 91 kts 27°
2026-04-18 03:23 -41.33686 173.16875 4024 ft 90 kts 27°
2026-04-18 03:23 -41.33261 173.17480 3722 ft 90 kts 27°
2026-04-18 03:24 -41.32835 173.18101 3354 ft 98 kts 32°
2026-04-18 03:24 -41.32352 173.18847 2725 ft 115 kts 38°
2026-04-18 03:24 -41.31845 173.19694 2098 ft 107 kts 46°
2026-04-18 03:24 -41.31373 173.20292 1611 ft 94 kts 38°
2026-04-18 03:25 -41.30842 173.20887 931 ft 103 kts 37°
2026-04-18 03:25 -41.30349 173.21530 419 ft 91 kts 46°
2026-04-18 03:25 -41.29935 173.22099 91 ft 78 kts 43°
2026-04-18 03:25 -41.29613 173.22488 15 ft 40 kts 43°
2026-04-18 03:26 -41.29547 173.22568 15 ft 0 kts 43°